Hourly Data Report for October 23, 2003

TORONTO CITY
ONTARIO

43°40'00.000" N
79°24'00.000" W
112.50 m
6158355
71508
XTO

Download Data

Hourly Data (October 2003)
Hourly Data Report for October 23, 2003
TIME
LST
Temp Definition
°C
Dew Point Definition
°C
Rel Hum Definition
%
Precip. Amount Definition
mm

Wind Dir Definition
10's deg

Wind Spd Definition
km/h
Visibility Definition
km
Stn Press Definition
kPa
Hmdx Definition


Wind Chill Definition


Weather Definition


00:00 3.1 -5.0 55   LegendMM LegendMM LegendMM 99.54     LegendNANA
01:00 3.0 -4.7 57   LegendMM LegendMM LegendMM 99.50     LegendNANA
02:00 2.8 -4.3 59   LegendMM LegendMM LegendMM 99.49     LegendNANA
03:00 2.6 -4.5 59   LegendMM LegendMM LegendMM 99.44     LegendNANA
04:00 2.3 -5.7 55   LegendMM LegendMM LegendMM 99.46     LegendNANA
05:00 2.1 -5.0 59   LegendMM LegendMM LegendMM 99.49     LegendNANA
06:00 2.1 -4.6 61   LegendMM LegendMM LegendMM 99.51     LegendNANA
07:00 2.0 -5.1 59   LegendMM LegendMM LegendMM 99.53     LegendNANA
08:00 2.3 -4.3 62   LegendMM LegendMM LegendMM 99.57     LegendNANA
09:00 2.6 -3.2 66   LegendMM LegendMM LegendMM 99.58     LegendNANA
10:00 4.0 -3.3 59   LegendMM LegendMM LegendMM 99.53     LegendNANA
11:00 5.2 -4.5 50   LegendMM LegendMM LegendMM 99.53     LegendNANA
12:00 5.4 -4.8 48   LegendMM LegendMM LegendMM 99.51     LegendNANA
13:00 5.2 -5.2 47   LegendMM LegendMM LegendMM 99.49     LegendNANA
14:00 6.3 -5.1 44   LegendMM LegendMM LegendMM 99.45     LegendNANA
15:00 5.9 -4.3 48   LegendMM LegendMM LegendMM 99.51     LegendNANA
16:00 5.5 -4.5 48   LegendMM LegendMM LegendMM 99.53     LegendNANA
17:00 4.9 -3.8 53   LegendMM LegendMM LegendMM 99.60     LegendNANA
18:00 4.7 -3.4 56   LegendMM LegendMM LegendMM 99.67     LegendNANA
19:00 4.0 -2.8 61   LegendMM LegendMM LegendMM 99.72     LegendNANA
20:00 4.2 -3.0 59   LegendMM LegendMM LegendMM 99.81     LegendNANA
21:00 4.2 -2.7 61   LegendMM LegendMM LegendMM 99.87     LegendNANA
22:00 4.4 -2.9 59   LegendMM LegendMM LegendMM 99.93     LegendNANA
23:00 4.2 -2.1 64   LegendMM LegendMM LegendMM 99.95     LegendNANA

Notes on Data Quality.

Legend

  • E = Estimated
  • M = Missing
  • NA = Not Available*
  • [empty] = Indicates an unobserved value
Date modified: